This is the latest recevied weather packets stored in our database for station/object KD8BMB. If no packets are shown the sender has not sent any weather packets the latest 10 day(s).
| Time | Temp. | Humidity | Pressure | Rain* | Wind** | Luminosity | Snow |
|---|---|---|---|---|---|---|---|
| 1778029629 | 10.56° C | 53% | 1007.4 hPa | 0 mm | - | 0 W/m² | - |
| 1778029326 | 10.56° C | 53% | 1007.4 hPa | 0 mm | - | 0 W/m² | - |
| 1778029023 | 10.56° C | 52% | 1007.3 hPa | 0 mm | - | 0 W/m² | - |
| 1778028720 | 11.11° C | 51% | 1007.3 hPa | 0 mm | - | 0 W/m² | - |
| 1778028416 | 10.56° C | 51% | 1007.2 hPa | 0 mm | - | 0 W/m² | - |
| 1778028114 | 11.11° C | 52% | 1007.3 hPa | 0 mm | - | 0 W/m² | - |
| 1778027809 | 11.11° C | 51% | 1007.5 hPa | 0 mm | - | 0 W/m² | - |
| 1778027506 | 11.11° C | 50% | 1007.3 hPa | 0 mm | - | 0 W/m² | - |
| 1778027202 | 11.11° C | 50% | 1007.4 hPa | 0 mm | - | 2 W/m² | - |
| 1778026898 | 11.11° C | 50% | 1007.5 hPa | 0 mm | - | 3 W/m² | - |
| 1778026594 | 11.11° C | 49% | 1007.4 hPa | 0 mm | - | 6 W/m² | - |
| 1778026292 | 11.11° C | 48% | 1007.3 hPa | 0 mm | - | 6 W/m² | - |
| 1778025988 | 11.67° C | 49% | 1007.3 hPa | 0 mm | - | 14 W/m² | - |
| 1778025686 | 11.67° C | 48% | 1007.1 hPa | 0 mm | - | 12 W/m² | - |
| 1778025384 | 11.67° C | 47% | 1007 hPa | 0 mm | - | 16 W/m² | - |
| 1778025080 | 11.67° C | 47% | 1006.9 hPa | 0 mm | - | 16 W/m² | - |
| 1778024778 | 11.67° C | 47% | 1006.8 hPa | 0 mm | - | 19 W/m² | - |
| 1778024474 | 11.67° C | 49% | 1006.8 hPa | 0 mm | - | 26 W/m² | - |
| 1778024172 | 11.67° C | 48% | 1006.8 hPa | 0 mm | - | 31 W/m² | - |
| 1778023869 | 11.67° C | 47% | 1006.6 hPa | 0 mm | - | 32 W/m² | - |
| 1778023567 | 12.22° C | 46% | 1006.5 hPa | 0 mm | - | 36 W/m² | - |
| 1778023264 | 12.22° C | 46% | 1006.8 hPa | 0 mm | - | 45 W/m² | - |
| 1778022961 | 12.22° C | 45% | 1006.7 hPa | 0 mm | - | 40 W/m² | - |
| 1778022660 | 12.22° C | 45% | 1006.7 hPa | 0 mm | - | 48 W/m² | - |
| 1778022356 | 12.22° C | 44% | 1006.6 hPa | 0 mm | - | 47 W/m² | - |
* Rain latest hour (hover to see other rain measurements)
** Current wind speed in m/s (hover to see current wind gust speed)